Location: North Fort Myers
(26.6673°N, 81.8801°W)
Time: 14:44:47
(UTC+00:00)

Envisat - Pass Details

Date: 19 August 2022
Orbit: 764 x 765 km, 98.2° (Epoch: 26 September)

Event Time Altitude Azimuth Distance (km) Brightness Sun altitude
Rises 10:22:32 0° 359° (N) 3,229 6.5 -9.1°
Reaches altitude 10° 10:25:01 10° 350° (N) 2,300 5.6 -8.6°
Maximum altitude 10:29:32 34° 287° (WNW) 1,249 3.7 -7.6°
Drops below altitude 10° 10:34:02 10° 224° (SW) 2,291 4.9 -6.7°
Sets 10:36:31 0° 215° (SW) 3,213 5.7 -6.2°
Enters shadow 10:36:33 - 215° (SW) 3,227 5.8 -6.2°
